Cosmos 1782 - Orbit

View from above orbital plane
View from above orbital plane
View from above satellite
View from above satellite

Ground track
Ground track

The orbit data is extracted from the following two-line orbital elements,

1 16986U 86074A   13143.74908060  .00002499  00000-0  19448-3 0  4764
2 16986 082.5079 121.1991 0012665 010.3647 349.7836 15.00797460447530
Epoch (UTC): 23 May 2013 17:58:40
Eccentricity: 0.0012665
inclination: 82.5079°
perigee height: 555 km
apogee height: 573 km
right ascension of ascending node: 121.1991°
argument of perigee: 10.3647°
revolutions per day: 15.00797460
mean anomaly at epoch: 349.7836°
orbit number at epoch: 44753

The dashed part of the orbit path shows where the satellite is in the earth's shadow,  

Developed and maintained by Chris Peat, Heavens-Above GmbH. Please read the updated FAQ before sending e-mail. Imprint. DLR